• In Czech Republic
  • List of Countries
  • For 7 days
  • Water Temperature
  • Satellite Maps
  • Weather Map
  • Weather Widgets
  • user-avatar
    Login

    Hourly Weather Tri Rutki

    Today, 21 September, Friday

    Time Temperature Precipitation Wind Pressure Humidity
    00:00 +13°C° 0 mm 1 mps 752 mmHg 97%
    01:00 +13°C° 0 mm 1 mps 752 mmHg 97%
    02:00 +13°C° 0 mm 1 mps 753 mmHg 97%
    03:00 +13°C° 0 mm 1 mps 753 mmHg 98%
    04:00 +13°C° 0 mm 1 mps 754 mmHg 98%
    05:00 +13°C° 0 mm 1 mps 754 mmHg 98%
    06:00 +13°C° 0 mm 1 mps 754 mmHg 98%
    07:00 +14°C° 0 mm 2 mps 755 mmHg 95%
    08:00 +14°C° 0 mm 2 mps 755 mmHg 93%
    09:00 +15°C° 0 mm 2 mps 755 mmHg 90%
    10:00 +17°C° 0 mm 2 mps 755 mmHg 84%
    11:00 +18°C° 0 mm 2 mps 756 mmHg 79%
    12:00 +19°C° 0 mm 2 mps 756 mmHg 74%
    13:00 +20°C° 0 mm 2 mps 756 mmHg 70%
    14:00 +21°C° 0 mm 3 mps 756 mmHg 67%
    15:00 +23°C° 0 mm 2 mps 756 mmHg 63%
    16:00 +21°C° 0 mm 2 mps 756 mmHg 70%
    17:00 +19°C° 0 mm 2 mps 756 mmHg 76%
    18:00 +18°C° 0 mm 2 mps 756 mmHg 83%
    19:00 +17°C° 0 mm 2 mps 756 mmHg 86%
    20:00 +17°C° 0 mm 2 mps 756 mmHg 89%
    21:00 +16°C° 0 mm 2 mps 757 mmHg 92%
    22:00 +16°C° 0 mm 2 mps 757 mmHg 93%
    23:00 +16°C° 0 mm 2 mps 757 mmHg 94%

    Tomorrow, 22 September, Saturday

    Time Temperature Precipitation Wind Pressure Humidity
    00:00 +15°C° 0 mm 2 mps 757 mmHg 94%
    01:00 +15°C° 0 mm 2 mps 757 mmHg 95%
    02:00 +15°C° 0 mm 2 mps 757 mmHg 95%
    03:00 +15°C° 0 mm 2 mps 757 mmHg 95%
    04:00 +15°C° 0 mm 2 mps 757 mmHg 95%
    05:00 +15°C° 0 mm 2 mps 758 mmHg 96%
    06:00 +15°C° 0 mm 2 mps 758 mmHg 96%
    07:00 +16°C° 0 mm 2 mps 758 mmHg 89%
    08:00 +18°C° 0 mm 2 mps 758 mmHg 82%
    09:00 +20°C° 0 mm 2 mps 758 mmHg 75%
    10:00 +21°C° 0 mm 3 mps 758 mmHg 68%
    11:00 +24°C° 0 mm 3 mps 758 mmHg 62%
    12:00 +25°C° 0 mm 3 mps 757 mmHg 56%
    13:00 +25°C° 0 mm 3 mps 757 mmHg 55%
    14:00 +26°C° 0 mm 3 mps 757 mmHg 54%
    15:00 +26°C° 0 mm 3 mps 757 mmHg 53%
    16:00 +24°C° 0 mm 3 mps 757 mmHg 61%
    17:00 +21°C° 0 mm 2 mps 756 mmHg 69%
    18:00 +19°C° 0 mm 2 mps 756 mmHg 77%
    19:00 +18°C° 0 mm 2 mps 756 mmHg 81%
    20:00 +18°C° 0 mm 2 mps 756 mmHg 85%
    21:00 +17°C° 0 mm 2 mps 756 mmHg 89%
    22:00 +17°C° 0 mm 2 mps 756 mmHg 90%
    23:00 +16°C° 0 mm 2 mps 756 mmHg 91%

    Day after tomorrow, 23 September, Sunday

    Time Temperature Precipitation Wind Pressure Humidity
    00:00 +16°C° 0 mm 2 mps 756 mmHg 91%
    01:00 +16°C° 0 mm 2 mps 756 mmHg 92%
    02:00 +15°C° 0 mm 2 mps 756 mmHg 92%
    03:00 +15°C° 0 mm 2 mps 756 mmHg 93%
    04:00 +14°C° 0 mm 3 mps 756 mmHg 92%
    05:00 +14°C° 0 mm 3 mps 756 mmHg 92%
    06:00 +13°C° 0 mm 3 mps 755 mmHg 91%
    07:00 +16°C° 0 mm 3 mps 755 mmHg 83%
    08:00 +18°C° 0 mm 4 mps 755 mmHg 75%
    09:00 +20°C° 0 mm 4 mps 755 mmHg 67%
    10:00 +21°C° 0 mm 5 mps 754 mmHg 62%
    11:00 +22°C° 0 mm 6 mps 754 mmHg 57%
    12:00 +24°C° 0 mm 6 mps 753 mmHg 51%
    13:00 +24°C° 0 mm 6 mps 753 mmHg 51%
    14:00 +24°C° 0 mm 6 mps 752 mmHg 51%
    15:00 +24°C° 0 mm 6 mps 751 mmHg 51%
    16:00 +22°C° 0 mm 5 mps 751 mmHg 55%
    17:00 +21°C° 0 mm 5 mps 751 mmHg 60%
    18:00 +20°C° 0 mm 4 mps 750 mmHg 65%
    19:00 +19°C° 0 mm 4 mps 750 mmHg 65%
    20:00 +19°C° 0 mm 5 mps 750 mmHg 66%
    21:00 +19°C° 0 mm 5 mps 750 mmHg 66%
    22:00 +19°C° 0 mm 5 mps 750 mmHg 68%
    23:00 +18°C° 0 mm 4 mps 749 mmHg 69%

    24 September, Monday

    Time Temperature Precipitation Wind Pressure Humidity
    00:00 +18°C° 0 mm 4 mps 749 mmHg 70%
    01:00 +17°C° 0.1 mm 4 mps 749 mmHg 71%
    02:00 +17°C° 0.1 mm 3 mps 749 mmHg 72%
    03:00 +16°C° 0.1 mm 3 mps 749 mmHg 74%
    04:00 +14°C° 0.2 mm 3 mps 749 mmHg 76%
    05:00 +13°C° 0.2 mm 3 mps 749 mmHg 79%
    06:00 +12°C° 0.2 mm 4 mps 749 mmHg 81%
    07:00 +11°C° 0.7 mm 4 mps 749 mmHg 83%
    08:00 +10°C° 0.7 mm 4 mps 750 mmHg 84%
    09:00 +8°C° 0.7 mm 4 mps 750 mmHg 86%
    10:00 +10°C° 0.5 mm 3 mps 750 mmHg 85%
    11:00 +10°C° 0.5 mm 3 mps 751 mmHg 84%
    12:00 +10°C° 0.5 mm 2 mps 751 mmHg 83%
    13:00 +12°C° 0.2 mm 2 mps 751 mmHg 79%
    14:00 +13°C° 0.2 mm 2 mps 752 mmHg 76%
    15:00 +14°C° 0.2 mm 1 mps 752 mmHg 73%
    16:00 +13°C° 0 mm 1 mps 752 mmHg 77%
    17:00 +12°C° 0 mm 1 mps 752 mmHg 82%
    18:00 +11°C° 0 mm 1 mps 752 mmHg 86%
    19:00 +11°C° 0 mm 1 mps 752 mmHg 88%
    20:00 +9°C° 0 mm 2 mps 752 mmHg 90%
    21:00 +9°C° 0 mm 2 mps 751 mmHg 91%
    22:00 +8°C° 0 mm 2 mps 751 mmHg 91%
    23:00 +8°C° 0 mm 2 mps 751 mmHg 92%

    25 September, Tuesday

    Time Temperature Precipitation Wind Pressure Humidity
    00:00 +8°C° 0 mm 2 mps 750 mmHg 92%
    01:00 +8°C° 0 mm 3 mps 750 mmHg 90%
    02:00 +8°C° 0 mm 3 mps 749 mmHg 88%
    03:00 +8°C° 0 mm 3 mps 749 mmHg 86%
    04:00 +8°C° 0 mm 3 mps 748 mmHg 83%
    05:00 +7°C° 0 mm 4 mps 747 mmHg 80%
    06:00 +7°C° 0 mm 4 mps 746 mmHg 77%
    07:00 +8°C° 0.1 mm 5 mps 746 mmHg 77%
    08:00 +8°C° 0.1 mm 5 mps 745 mmHg 78%
    09:00 +8°C° 0.1 mm 5 mps 744 mmHg 78%
    10:00 +9°C° 0.3 mm 6 mps 744 mmHg 81%
    11:00 +9°C° 0.3 mm 6 mps 743 mmHg 83%
    12:00 +9°C° 0.3 mm 6 mps 743 mmHg 86%
    13:00 +10°C° 0.1 mm 6 mps 743 mmHg 84%
    14:00 +10°C° 0.1 mm 6 mps 742 mmHg 82%
    15:00 +12°C° 0.1 mm 5 mps 742 mmHg 80%
    16:00 +10°C° 0.1 mm 5 mps 742 mmHg 79%
    17:00 +9°C° 0.1 mm 5 mps 741 mmHg 79%
    18:00 +9°C° 0.1 mm 5 mps 741 mmHg 79%
    19:00 +9°C° 0 mm 5 mps 740 mmHg 78%
    20:00 +8°C° 0 mm 5 mps 740 mmHg 77%
    21:00 +8°C° 0 mm 6 mps 739 mmHg 76%
    22:00 +8°C° 0.1 mm 6 mps 739 mmHg 78%
    23:00 +8°C° 0.1 mm 6 mps 739 mmHg 80%

    26 September, Wednesday

    Time Temperature Precipitation Wind Pressure Humidity
    00:00 +8°C° 0.1 mm 6 mps 738 mmHg 81%
    01:00 +8°C° 0.3 mm 6 mps 739 mmHg 83%
    02:00 +8°C° 0.3 mm 6 mps 739 mmHg 85%
    03:00 +8°C° 0.3 mm 6 mps 739 mmHg 86%
    04:00 +7°C° 0.3 mm 6 mps 739 mmHg 87%
    05:00 +7°C° 0.3 mm 6 mps 740 mmHg 87%
    06:00 +7°C° 0.3 mm 6 mps 741 mmHg 87%
    07:00 +6°C° 0.1 mm 7 mps 741 mmHg 86%
    08:00 +6°C° 0.1 mm 7 mps 742 mmHg 84%
    09:00 +6°C° 0.1 mm 7 mps 743 mmHg 83%
    10:00 +6°C° 0.1 mm 7 mps 744 mmHg 81%
    11:00 +6°C° 0.1 mm 7 mps 746 mmHg 80%
    12:00 +6°C° 0.1 mm 7 mps 747 mmHg 79%
    13:00 +6°C° 0.1 mm 7 mps 748 mmHg 78%
    14:00 +7°C° 0.1 mm 6 mps 748 mmHg 77%
    15:00 +7°C° 0.1 mm 6 mps 749 mmHg 76%
    16:00 +5°C° 0 mm 6 mps 750 mmHg 75%
    17:00 +5°C° 0 mm 6 mps 750 mmHg 75%
    18:00 +6°C° 0 mm 5 mps 751 mmHg 75%
    19:00 +6°C° 0.1 mm 5 mps 751 mmHg 76%
    20:00 +6°C° 0.1 mm 5 mps 752 mmHg 78%
    21:00 +6°C° 0.1 mm 5 mps 752 mmHg 80%
    22:00 +6°C° 0.1 mm 5 mps 753 mmHg 81%
    23:00 +5°C° 0.1 mm 4 mps 753 mmHg 83%
    Show more